[[{"header":{"parameterUnit":"m.s-1","parameterCategory":1,"la1":30.2991,"la2":30.254,"lo1":-89.0895,"lo2":-89.0444,"dy":0.0017,"dx":0.0017,"nx":28,"ny":28,"refTime":"2023-05-01T21:00:00:Z","depth":0,"parameterNumber":2,"parameterNumberName":"U-component_of_WINDS"},"data":[0,0,0,0,0,0,0,0,0,0,0,0,0,0,0,0,0,0,0,0,0,0,0,0,0,0,0,0,0,0,0,0,0,0,0,0,0,0,0,0,0,0,0,0,0,0,0,0,0,0,0,0,0,0,0,0,0,0,1.588,1.5881,0,1.5969,1.597,1.5971,1.605,1.6051,1.6052,1.6052,1.6145,1.6147,1.6148,0,0,0,0,0,0,0,0,0,0,0,0,0,1.578,1.5782,1.588,1.5881,1.5882,1.5969,1.597,1.5971,1.605,1.6051,1.6052,1.6053,1.6144,1.6146,1.6148,0,0,0,0,0,0,0,0,0,0,0,0,0,1.5842,1.5782,1.588,1.5932,1.5937,1.5969,1.597,1.5972,1.6049,1.6051,1.6052,1.6053,1.6144,1.6146,1.6149,1.6136,0,0,1.6156,1.6157,0,0,0,0,0,0,0,0,1.5838,1.5845,1.5923,1.5928,1.5934,1.6,1.5969,1.6027,1.6049,1.6007,1.6052,1.6054,1.6096,1.6102,1.6116,1.614,1.6144,1.6156,1.6158,1.6159,1.6159,0,0,0,0,0,0,0,1.5834,1.5842,1.5915,1.5924,1.5931,1.5951,1.5962,1.598,1.6042,1.6011,1.6016,1.6026,1.6099,1.6113,1.6119,1.6146,1.6156,1.6158,1.616,1.6161,1.6167,1.6165,0,0,0,0,0,0,1.5821,1.5838,1.5912,1.5918,1.5889,1.5952,1.5963,1.5977,1.6042,1.6054,1.6025,1.6029,1.6108,1.6116,1.6122,1.6113,1.6159,1.6161,1.6162,1.6168,1.6166,1.6165,0,0,0,0,0,0,1.5819,1.5827,1.5909,1.588,1.5892,1.5952,1.5967,1.5978,1.5993,1.6053,1.6065,1.6028,1.611,1.6119,1.6132,1.6117,1.6162,1.6164,1.6169,1.6167,1.6166,1.6093,0,0,0,0,0,0,1.5816,1.5826,1.5821,1.5879,1.5893,1.5916,1.5966,1.5979,1.5996,1.6003,1.6059,1.6069,1.6112,1.6128,1.6135,1.6121,1.6166,1.6171,1.6168,1.6166,1.6097,1.6089,1.6082,0,0,0,0,0,1.5812,1.5797,1.582,1.5829,1.5888,1.5915,1.5923,1.5972,1.5995,1.5991,1.603,1.6068,1.6118,1.6129,1.6137,1.6124,1.6172,1.6169,1.6166,1.6101,1.6091,1.6082,0,0,0,0,0,0,1.5736,1.5806,1.5832,1.5835,1.5869,1.5929,1.5925,1.5959,1.5987,1.5992,1.6052,1.6064,1.6071,1.6099,1.611,1.6116,1.615,1.6149,1.6097,1.6088,1.6081,1.6074,1.6168,0,0,0,0,0,1.5719,1.5735,1.5796,1.5793,1.5808,1.5864,1.5877,1.5912,1.5949,1.5964,1.6004,1.6039,1.6063,1.6077,1.6103,1.6102,1.6116,1.6097,1.6089,1.6083,1.6081,1.6084,1.6077,1.6155,1.6155,1.6155,0,0,1.5686,1.5726,1.5732,1.5779,1.5809,1.5825,1.5875,1.5889,1.5902,1.5966,1.5981,1.6012,1.6056,1.6062,1.6067,1.6086,1.6062,1.6079,1.6073,1.6075,1.608,1.6073,1.6066,1.6153,1.6154,1.6154,0,0,1.5633,1.5664,1.5666,1.5695,1.574,1.5777,1.5777,1.5832,1.5855,1.5871,1.592,1.5937,1.5976,1.6005,1.6025,1.5985,1.6021,1.5991,1.5952,1.5954,1.5948,1.5942,1.5929,1.5923,1.5989,1.5989,1.5989,0,1.5585,1.5611,1.5662,1.5674,1.5694,1.5753,1.5755,1.5781,1.5832,1.5845,1.5865,1.5916,1.595,1.5964,1.5955,1.5969,1.5972,1.5985,1.5944,1.594,1.5936,1.5923,1.5918,1.5985,1.5986,1.5986,1.5986,0,1.5551,1.5568,1.5564,1.5611,1.5631,1.5638,1.5691,1.5705,1.5738,1.5773,1.579,1.5832,1.5867,1.5874,1.5906,1.5893,1.5904,1.5933,1.5968,1.5923,1.5913,1.5908,1.598,1.5981,1.5982,1.5983,0,0,1.5451,1.5528,1.5526,1.5549,1.5603,1.5618,1.5628,1.5663,1.5673,1.5707,1.5718,1.5751,1.5779,1.5801,1.5838,1.5839,1.5806,1.5869,1.5871,1.5856,1.5796,1.5773,1.5767,1.583,1.5829,1.5829,1.5792,0,1.5407,1.5429,1.5477,1.5484,1.5501,1.5558,1.5567,1.5602,1.5635,1.5656,1.5693,1.5716,1.575,1.5765,1.5769,1.5809,1.5795,1.5812,1.5842,1.5842,1.5829,1.5761,1.5737,1.5701,1.5789,1.5788,1.5787,0,1.5359,1.5389,1.5397,1.5452,1.5461,1.5469,1.5505,1.5523,1.5564,1.5589,1.5614,1.5655,1.567,1.5702,1.5725,1.5736,1.5751,1.5773,1.5772,1.5777,1.5812,1.5764,1.569,1.5685,1.5781,1.5782,1.5782,0,1.5286,1.5329,1.534,1.5358,1.5422,1.5426,1.5453,1.5495,1.5513,1.5545,1.5558,1.5591,1.5609,1.5634,1.5683,1.5702,1.57,1.5736,1.5722,1.572,1.5719,1.5718,1.5646,1.5728,1.5728,1.5728,1.5728,0,1.5232,1.5235,1.5308,1.5315,1.5321,1.5376,1.5381,1.5413,1.5451,1.5466,1.5517,1.553,1.5593,1.5614,1.5652,1.5665,1.5673,1.5694,1.5704,1.5689,1.5687,1.57,1.5704,1.5727,1.5727,1.5727,1.5727,0,1.5152,1.5201,1.5217,1.5276,1.5291,1.5293,1.5344,1.5354,1.5391,1.5409,1.5416,1.5475,1.5502,1.5553,1.5594,1.562,1.5625,1.5643,1.5611,1.5617,1.56,1.5601,1.5534,1.5528,1.5613,1.5612,1.5611,0,1.5114,1.5118,1.5178,1.5192,1.5217,1.5238,1.5257,1.5312,1.5329,1.5377,1.5381,1.5412,1.544,1.5481,1.5527,1.5559,1.5578,1.5553,1.5583,1.5569,1.5579,1.5578,1.5579,1.5546,1.5544,1.5543,1.5543,0,1.5042,1.5067,1.5092,1.5125,1.5146,1.5176,1.5208,1.5216,1.5279,1.5296,1.5324,1.5346,1.5389,1.5419,1.5458,1.5487,1.5525,1.5533,1.5531,1.5516,1.5497,1.5508,1.5592,1.5534,1.5535,1.5535,1.5536,1.5536,1.4982,1.4989,1.5033,1.5059,1.5089,1.5118,1.513,1.5169,1.5193,1.5232,1.5264,1.5289,1.5332,1.5389,1.5416,1.5437,1.5455,1.5453,1.5452,1.5451,1.5445,1.5494,1.5445,1.5445,1.5445,1.5446,1.5446,0,1.4914,1.4945,1.4969,1.5012,1.5033,1.5068,1.5105,1.5121,1.5143,1.5179,1.5206,1.5239,1.5269,1.5318,1.5353,1.5361,1.5379,1.5368,1.5368,1.5374,1.5427,1.5425,1.5352,1.5352,1.5352,1.5352,1.5352,1.5352,1.488,1.4894,1.4923,1.4952,1.4984,1.501,1.5028,1.5056,1.5085,1.512,1.5145,1.5177,1.5219,1.5257,1.5287,1.5301,1.5311,1.5294,1.5313,1.5361,1.537,1.5378,1.5377,1.5296,1.5296,1.5259,1.5259,1.5259]},{"header":{"parameterUnit":"m.s-1","parameterCategory":1,"la1":30.2991,"la2":30.254,"lo1":-89.0895,"lo2":-89.0444,"dy":0.0017,"dx":0.0017,"nx":28,"ny":28,"refTime":"2023-05-01T21:00:00:Z","depth":0,"parameterNumber":3,"parameterNumberName":"V-component_of_WINDS"},"data":[0,0,0,0,0,0,0,0,0,0,0,0,0,0,0,0,0,0,0,0,0,0,0,0,0,0,0,0,0,0,0,0,0,0,0,0,0,0,0,0,0,0,0,0,0,0,0,0,0,0,0,0,0,0,0,0,0,0,1.7844,1.7845,0,1.787,1.787,1.7871,1.7884,1.7884,1.7884,1.7884,1.7908,1.7909,1.7909,0,0,0,0,0,0,0,0,0,0,0,0,0,1.7802,1.7803,1.7844,1.7845,1.7845,1.787,1.787,1.7871,1.7884,1.7884,1.7884,1.7884,1.7908,1.7908,1.7909,0,0,0,0,0,0,0,0,0,0,0,0,0,1.7823,1.7803,1.7844,1.7854,1.7856,1.787,1.787,1.7871,1.7884,1.7884,1.7884,1.7884,1.7907,1.7908,1.7909,1.7915,0,0,1.7912,1.7913,0,0,0,0,0,0,0,0,1.7822,1.7825,1.7853,1.7854,1.7855,1.7874,1.7864,1.7886,1.7884,1.7873,1.7884,1.7884,1.7896,1.7898,1.7903,1.7916,1.7917,1.7912,1.7913,1.7913,1.7914,0,0,0,0,0,0,0,1.7821,1.7824,1.7854,1.7853,1.7854,1.7856,1.7859,1.7868,1.7884,1.7874,1.7875,1.7878,1.7897,1.7902,1.7904,1.7917,1.7912,1.7913,1.7914,1.7914,1.7933,1.7933,0,0,0,0,0,0,1.7818,1.7823,1.7854,1.7855,1.7838,1.7857,1.7861,1.7868,1.7884,1.7887,1.7878,1.7878,1.79,1.7902,1.7905,1.791,1.7913,1.7914,1.7915,1.7933,1.7933,1.7933,0,0,0,0,0,0,1.7817,1.7821,1.7853,1.7839,1.7843,1.7858,1.7866,1.7868,1.7873,1.7887,1.789,1.788,1.79,1.7903,1.7912,1.7911,1.7915,1.7915,1.7933,1.7933,1.7933,1.7923,0,0,0,0,0,0,1.7816,1.782,1.7824,1.7839,1.7844,1.7861,1.7866,1.7869,1.7875,1.7876,1.789,1.7892,1.7901,1.791,1.7913,1.7913,1.7916,1.7933,1.7933,1.7933,1.7924,1.7923,1.7922,0,0,0,0,0,1.7814,1.782,1.7824,1.7828,1.7849,1.7861,1.7863,1.7873,1.7875,1.7878,1.7886,1.7892,1.7911,1.7911,1.7914,1.7914,1.7933,1.7933,1.7933,1.7924,1.7923,1.7922,0,0,0,0,0,0,1.7804,1.7822,1.7827,1.7838,1.7848,1.7863,1.7867,1.7872,1.7881,1.7882,1.7893,1.7896,1.7903,1.7909,1.7909,1.7919,1.7923,1.7923,1.7915,1.7914,1.7913,1.7911,1.7917,0,0,0,0,0,1.7803,1.7812,1.7827,1.7836,1.784,1.7852,1.7858,1.7865,1.7875,1.7879,1.7888,1.7897,1.7905,1.791,1.7918,1.7924,1.7926,1.7926,1.7925,1.7924,1.7924,1.7926,1.7925,1.7933,1.7933,1.7933,0,0,1.7802,1.7813,1.7818,1.7834,1.7842,1.785,1.7856,1.7864,1.787,1.788,1.7888,1.7895,1.7905,1.7912,1.7916,1.7918,1.7923,1.7924,1.7923,1.7924,1.7926,1.7925,1.7924,1.7933,1.7933,1.7933,0,0,1.7802,1.7812,1.7819,1.7827,1.7839,1.7847,1.7848,1.7862,1.7867,1.7875,1.7882,1.7888,1.7902,1.7908,1.7914,1.7913,1.7918,1.7915,1.7911,1.7913,1.7912,1.7912,1.791,1.7909,1.7915,1.7915,1.7915,0,1.7798,1.7811,1.7822,1.7829,1.7835,1.7844,1.785,1.7857,1.7871,1.7874,1.7876,1.7892,1.79,1.7907,1.7907,1.7912,1.7912,1.7914,1.7912,1.7911,1.7911,1.7909,1.7909,1.7915,1.7915,1.7915,1.7915,0,1.7805,1.7813,1.7817,1.783,1.7836,1.7843,1.7853,1.7858,1.7863,1.787,1.7877,1.7886,1.7895,1.7897,1.7903,1.7905,1.7906,1.791,1.7913,1.7909,1.7908,1.7908,1.7914,1.7914,1.7915,1.7915,0,0,1.7801,1.7818,1.7819,1.7824,1.7837,1.7843,1.7849,1.7858,1.7861,1.787,1.7874,1.7884,1.7887,1.7892,1.7898,1.79,1.7896,1.7903,1.7903,1.79,1.7897,1.7893,1.7892,1.79,1.79,1.79,1.7895,0,1.7803,1.7815,1.7823,1.7831,1.7837,1.7845,1.785,1.7857,1.7863,1.7868,1.7875,1.7881,1.7885,1.7888,1.789,1.7896,1.7896,1.7897,1.7902,1.7902,1.7899,1.7892,1.7889,1.7885,1.7895,1.7895,1.7895,0,1.7807,1.7814,1.7823,1.7833,1.7836,1.784,1.7847,1.7853,1.7861,1.7864,1.7869,1.7875,1.788,1.7883,1.7888,1.7889,1.7891,1.7894,1.7894,1.7895,1.7898,1.7891,1.7884,1.7883,1.7894,1.7894,1.7895,0,1.7802,1.7814,1.782,1.7824,1.7836,1.7838,1.7843,1.7851,1.7855,1.7861,1.7863,1.787,1.7873,1.7877,1.7884,1.7886,1.7887,1.7892,1.789,1.7889,1.789,1.7889,1.7881,1.7892,1.7892,1.7892,1.7892,0,1.7802,1.7807,1.7818,1.7821,1.7826,1.7834,1.7838,1.7843,1.7849,1.7853,1.786,1.7863,1.7872,1.7875,1.788,1.7883,1.7884,1.7887,1.7888,1.7886,1.7885,1.7887,1.7887,1.7892,1.7892,1.7892,1.7892,0,1.7797,1.7805,1.7812,1.7822,1.7824,1.7827,1.7835,1.7838,1.7843,1.7847,1.7849,1.7857,1.7861,1.7868,1.7875,1.7878,1.7879,1.7881,1.7876,1.7877,1.7874,1.7873,1.7866,1.7865,1.7877,1.7877,1.7877,0,1.7797,1.78,1.781,1.7813,1.7818,1.7823,1.7826,1.7834,1.7837,1.7844,1.7846,1.785,1.7855,1.7861,1.7866,1.7871,1.7873,1.787,1.7873,1.787,1.7871,1.787,1.787,1.7869,1.7869,1.7868,1.7868,0,1.7795,1.7798,1.7803,1.7809,1.7813,1.7818,1.7823,1.7825,1.7833,1.7836,1.784,1.7844,1.7849,1.7853,1.7858,1.7861,1.7865,1.7867,1.7866,1.7864,1.786,1.7861,1.7873,1.7867,1.7867,1.7867,1.7867,1.7867,1.7792,1.7794,1.78,1.7805,1.781,1.7814,1.7816,1.7821,1.7825,1.7831,1.7834,1.7838,1.7843,1.7849,1.7852,1.7854,1.7856,1.7856,1.7856,1.7855,1.7854,1.786,1.7855,1.7855,1.7855,1.7855,1.7855,0,1.7789,1.7792,1.7797,1.7803,1.7806,1.781,1.7815,1.7817,1.782,1.7825,1.7828,1.7832,1.7835,1.784,1.7843,1.7844,1.7845,1.7844,1.7844,1.7844,1.7852,1.7852,1.7842,1.7842,1.7842,1.7842,1.7842,1.7842,1.7787,1.7791,1.7794,1.7799,1.7803,1.7806,1.7809,1.7812,1.7815,1.7819,1.7821,1.7825,1.7829,1.7832,1.7834,1.7835,1.7836,1.7833,1.7835,1.7843,1.7844,1.7845,1.7845,1.7834,1.7834,1.7827,1.7827,1.7827]}]]